Location: Carrières
(48.9495°N, 2.0407°E)
Time: 05:28:46
(UTC+00:00)

Vanguard 1 Rocket - Pass Details

Date: 18 April 2024
Orbit: 650 x 4220 km, 34.3° (Epoch: 27 May)

Event Time Altitude Azimuth Distance (km) Brightness Sun altitude
Rises 00:51:42 0° 264° (W) 5,000 11.0 -28.6°
Enters shadow 00:53:03 - 260° (W) 4,792 10.8 -28.6°
Exits shadow 01:20:29 - 161° (SSE) 7,205 11.6 -27.0°
Sets 01:25:47 0° 154° (SSE) 8,172 11.9 -26.6°
